Tracking 29034 objects as of 24-Jun-2024
HD Live streaming from Space Station
objects crossing your sky now

STARLINK-3083

Track STARLINK-3083 now!
10-day predictions
STARLINK-3083 is classified as:


NORAD ID: 49158
Int'l Code: 2021-082AE
Perigee: 530.4 km
Apogee: 535.6 km
Inclination: 70.0 °
Period: 95.2 minutes
Semi major axis: 6904 km
RCS: Unknown
Launch date: September 14, 2021
Source: United States (US)
Launch site: AIR FORCE WESTERN TEST RANGE (AFWTR)
Your satellite tracking list
Your tracking list is empty




NASA's NSSDC Master Catalog

Two Line Element Set (TLE):
1 49158U 21082AE  24176.02714836  .00013629  00000-0  76647-3 0  9995
2 49158  69.9957  35.9668 0003795 231.2288 128.8540 15.13388976154426
Source of the keplerian elements: AFSPC